Patuxent River, MD

10:10 PM EST on December 16, 2017 (GMT -0500)
Patuxent River Naval Air Station

Weather History for KNHK - September, 2013

Change the Weather History Date:

Monday, September 23, 2013

  Actual Average Record
Temperature  
Mean Temperature 58 °F -  
Max Temperature 66 °F 76 °F 90 °F (1980)
Min Temperature 50 °F 58 °F 45 °F (1983)
Degree Days  
Heating Degree Days 7    
Growing Degree Days 8 (Base 50)    
Moisture  
Dew Point 44 °F    
Average Humidity 60    
Maximum Humidity 86    
Minimum Humidity 43    
Precipitation  
Precipitation 0.00 in - - ()
Sea Level Pressure  
Sea Level Pressure 30.03 in    
Wind  
Wind Speed 10 mph (North)    
Max Wind Speed 16 mph    
Max Gust Speed 24 mph    
Visibility 10 miles    
Events      
Averages and records for this station are not official NWS values.
T = Trace of Precipitation, MM = Missing Value Source: NWS Daily Summary

Daily Weather History Graph

Daily Weather History Graph

Search for Another Location

Airport or City:

Trip Planner

Search our weather history database for the weather conditions in past years. The results will help you decide how hot, cold, wet, or windy it might be!

Date:

Astronomy

Sep. 23, 2013 Rise Set
Actual Time 6:54 AM EDT 7:00 PM EDT
Civil Twilight 6:28 AM EDT 7:27 PM EDT
Nautical Twilight 5:57 AM EDT 7:57 PM EDT
Astronomical Twilight 5:26 AM EDT 8:29 PM EDT
Moon 9:35 PM EDT (9/23) 11:07 AM EDT (9/23)
Length of Visible Light 12h 58m
Length of Day
12h 06m
Waning Gibbous, 81% of the Moon is Illuminated
Sep 23
Waning Gibbous
Sep 26
Last Quarter
Oct 4
New
Oct 11
First Quarter
Oct 18
Full

Hourly Weather History & Observations

Time (EDT) Temp. Dew Point Humidity Pressure Visibility Wind Dir Wind Speed Gust Speed Precip Events Conditions
12:52 AM 61.0 °F 50.0 °F 67% 29.93 in 10.0 mi NNW 9.2 mph - N/A   Partly Cloudy
1:52 AM 61.0 °F 50.0 °F 67% 29.95 in 10.0 mi North 6.9 mph - N/A   Overcast
2:52 AM 60.1 °F 42.1 °F 51% 29.96 in 10.0 mi NE 16.1 mph 24.2 mph N/A   Partly Cloudy
3:52 AM 59.0 °F 43.0 °F 55% 29.97 in 10.0 mi NE 13.8 mph - N/A   Scattered Clouds
4:52 AM 57.9 °F 43.0 °F 58% 29.98 in 10.0 mi NNE 15.0 mph 21.9 mph N/A   Mostly Cloudy
5:04 AM 57.2 °F 44.6 °F 63% 29.98 in 10.0 mi NE 11.5 mph 19.6 mph N/A   Scattered Clouds
5:52 AM 57.0 °F 43.0 °F 59% 29.99 in 10.0 mi NNE 13.8 mph - N/A   Scattered Clouds
6:52 AM 57.0 °F 44.1 °F 62% 30.02 in 10.0 mi NE 12.7 mph - N/A   Mostly Cloudy
7:52 AM 57.0 °F 44.1 °F 62% 30.04 in 10.0 mi NE 9.2 mph - N/A   Mostly Cloudy
8:52 AM 57.9 °F 44.1 °F 60% 30.06 in 10.0 mi NNE 8.1 mph - N/A   Mostly Cloudy
9:52 AM 57.9 °F 45.0 °F 62% 30.07 in 10.0 mi NNW 10.4 mph - N/A   Mostly Cloudy
10:52 AM 62.1 °F 42.1 °F 48% 30.08 in 10.0 mi North 13.8 mph 21.9 mph N/A   Scattered Clouds
11:52 AM 63.0 °F 42.1 °F 46% 30.08 in 10.0 mi North 12.7 mph 18.4 mph N/A   Scattered Clouds
12:52 PM 62.1 °F 41.0 °F 46% 30.07 in 10.0 mi NNW 9.2 mph - N/A   Scattered Clouds
1:52 PM 64.9 °F 43.0 °F 45% 30.05 in 10.0 mi North 5.8 mph - N/A   Scattered Clouds
2:52 PM 64.0 °F 44.1 °F 48% 30.04 in 10.0 mi NE 8.1 mph - N/A   Scattered Clouds
3:52 PM 64.9 °F 45.0 °F 48% 30.03 in 10.0 mi NNE 8.1 mph - N/A   Partly Cloudy
4:52 PM 66.0 °F 43.0 °F 43% 30.03 in 10.0 mi Variable 6.9 mph - N/A   Partly Cloudy
5:52 PM 64.9 °F 42.1 °F 43% 30.03 in 10.0 mi NNW 4.6 mph - N/A   Partly Cloudy
6:52 PM 62.1 °F 44.1 °F 52% 30.04 in 10.0 mi NW 3.5 mph - N/A   Partly Cloudy
7:52 PM 54.0 °F 46.9 °F 77% 30.06 in 10.0 mi West 4.6 mph - N/A   Partly Cloudy
8:52 PM 51.1 °F 46.9 °F 86% 30.06 in 10.0 mi West 5.8 mph - N/A   Clear
9:52 PM 50.0 °F 45.0 °F 83% 30.06 in 10.0 mi SW 3.5 mph - N/A   Clear
10:52 PM 50.0 °F 45.0 °F 83% 30.08 in 10.0 mi West 4.6 mph - N/A   Clear
11:52 PM 50.0 °F 46.0 °F 86% 30.08 in 10.0 mi West 4.6 mph - N/A   Mostly Cloudy